ATLAS 5 CENTAUR DEB, 46485

Orbit data source: Space-Track

ATLAS 5 CENTAUR DEB, 46485 is space debris in HEO originally from a launch on Wed, 17 Oct 2018 UTC launched from the Air Force Eastern Test Range (AFETR). Debris objects in space refer to the collection of defunct objects orbiting the Earth. Examples of debris include non-operational satellites, rocket bodies, and fragments generated from explosions, collisions, or faulty payload assembly.

Loading next visibility...
Identifier
46485, 2018-079BY
Orbit
HEO
Country
Flag of USUS
Related business
Flag of USUnited Launch Alliance/Lockheed Martin (US)
Manufacturer
ULA Decatur
Mission
Spacecraft
Bus & Motor
Unknown
Mass
Unknown
Launch date (UTC)
2018-10-17 (8 years ago)
Launch vehicle
Unknown
Launch site
Air Force Eastern Test Range (AFETR)
Object type
Payload
Rocket body
Debris
Shape & HBR
Unknown shape, 1.1 m
Radar Cross Section
RCS unknown

Expand to show TLE details & history
Last TLE update: 2 days ago

TLE from 2 days ago
0 ATLAS 5 CENTAUR DEB
1 46485U 18079BY  26123.11565174 -.00000156  00000-0  00000+0 0  9998
2 46485  13.3595 348.3004 4556387  55.0600 339.7879  2.01773022 32949
Epoch: 2026-05-03T02:46Z
TLE epoch observation values (Epoch: 2026-05-03T02:46:32.310Z)
Latitude
-0.00002°
Longitude
85.59611°
Altitude
10,216.385 km
Speed
5.742 km/s
True Right ascension
23h 13m 01s
True Declination
0° 00' 00"
Sunlit
Object was in daylight at epoch
Visualization orbit readout
Latitude
Unknown
Longitude
Unknown
Altitude
Unknown
Speed
Unknown
Apparent Right ascension
Unknown
Apparent Declination
Unknown
Sunlit
N/A
Visualization observer readout
Local Sidereal Time
04:37:47
Azimuth
Unknown
Elevation
Unknown
Doppler factor
Unknown
Orbital elements
Apogee altitude
32,132.67 km
Perigee altitude
8,023.646 km
Semi-major axis
26,456.295 km
Eccentricity
0.45564
Inclination
13.3595°
RAAN
348.3004°
Arg. of periapsis
55.06°
True anomaly
305.029°
Mean anomaly
339.7879°
Eccentric anomaly
324.70358°
Mean motion
0.50437 °/min
Orbital period
713.76 mins
BSTAR
0
Loading maneuver chart data...
Computing Atmospheric mass density...

Documentation

Showing up to 5 results
|